RH
93 87 65 33 15 14 15 11 9 9 9 8 8 8 7 6 6 5 5 5 4 5 4 4 4 4 4 4 4 5 6 11 22 27 21 14 11 12 13 11 12 17 25 37 41 35 31 30 28 30 31 29 25 20 21 25 24 24 22 21 20 18 18 16 18 19 18 20 24 27 26 27 32 33 32 32 31 32 33 32 32 32 31 31 37 44 48 51
93 92 84 57 26 14 16 14 9 9 9 8 9 8 8 8 6 6 6 5 5 4 4 5 4 4 4 3 4 5 9 20 27 22 14 13 13 13 13 12 12 13 22 34 33 24 23 24 27 29 27 24 20 16 19 22 23 23 20 20 19 16 15 15 16 16 16 19 24 26 25 26 29 31 31 31 32 32 34 35 35 36 37 38 43 48 50 52
92 94 93 79 48 22 16 16 12 8 9 9 9 9 8 8 7 7 6 5 6 4 5 5 4 5 3 5 5 5 22 32 22 15 15 13 13 15 14 13 12 10 17 27 23 17 17 21 26 25 22 19 13 14 16 19 22 19 18 20 17 14 14 15 15 16 16 18 23 25 25 26 27 29 29 29 31 32 32 34 36 40 43 43 45 48 51 51
92 93 94 92 74 45 22 17 15 9 9 9 8 9 8 8 8 7 7 6 6 5 5 4 5 5 3 6 3 10 34 30 10 12 16 11 12 16 17 14 11 12 17 20 17 15 13 17 24 21 18 14 8 11 13 16 20 17 18 18 14 14 15 15 14 15 16 17 22 24 26 26 26 27 28 27 29 29 27 29 32 37 42 43 44 46 50 50
94 93 93 94 88 65 34 19 16 11 10 10 9 9 7 8 7 7 7 6 6 6 6 5 6 5 6 7 4 19 34 16 4 14 15 10 12 14 17 16 11 16 21 16 14 13 10 12 19 18 14 10 6 8 10 12 16 16 18 16 13 15 15 15 14 14 16 17 21 25 26 26 26 28 27 27 27 24 22 23 26 32 37 40 41 44 47 48
93 91 89 84 77 61 37 24 17 13 12 9 9 8 7 8 7 7 7 6 7 7 7 6 5 7 9 7 11 28 27 8 6 14 12 11 12 12 17 17 14 19 20 13 11 10 8 9 14 15 12 8 6 7 8 9 13 16 16 15 14 15 15 14 13 14 16 18 21 24 24 23 27 28 25 26 25 21 19 20 24 30 35 37 39 41 43 44
93 91 86 73 59 48 36 27 18 14 13 10 10 8 7 8 7 8 6 7 9 8 9 6 7 11 12 16 26 31 19 8 9 10 11 11 11 12 15 17 18 22 19 11 11 8 7 8 9 11 9 7 6 6 7 7 12 15 15 14 14 13 13 12 11 14 16 18 20 21 22 24 27 26 25 25 24 23 21 20 25 31 34 36 39 40 40 42
95 92 86 72 58 46 34 26 17 13 11 10 10 8 8 8 7 7 6 8 10 9 8 6 12 14 14 30 35 21 11 9 9 8 12 13 13 15 18 24 26 24 18 11 10 8 7 7 8 8 7 6 5 6 7 8 11 12 14 14 13 12 11 9 11 14 16 18 18 21 23 25 24 23 25 24 23 25 23 24 29 32 34 37 39 39 40 43
98 94 90 81 70 55 37 24 16 11 10 10 9 9 9 7 7 7 6 9 10 9 9 13 21 14 18 36 26 10 10 9 8 11 14 16 16 19 25 32 33 25 16 12 10 8 7 6 7 5 5 5 5 6 6 8 10 10 13 13 12 11 9 9 11 14 17 17 19 23 24 23 23 24 25 23 24 26 24 28 31 33 35 37 38 38 41 44
99 97 95 90 82 67 43 25 16 10 10 8 8 10 8 8 8 6 8 10 8 11 19 26 24 19 32 39 19 9 12 8 11 15 15 17 16 18 20 25 30 24 14 12 10 8 6 6 6 4 5 5 4 6 6 8 9 9 12 11 11 10 10 11 12 14 16 18 21 23 24 23 24 26 25 22 26 29 27 30 33 34 35 36 36 37 42 44
100 98 97 92 83 72 51 30 18 10 9 9 8 8 7 8 7 8 11 8 10 21 33 35 23 29 47 36 15 11 10 9 16 19 17 16 16 16 15 19 25 21 14 12 10 8 7 5 5 5 5 5 5 6 6 7 8 8 10 11 12 11 11 12 13 15 17 21 22 19 23 26 27 28 23 22 28 30 29 31 33 34 36 36 36 37 44 44
99 99 99 92 78 73 61 37 19 10 10 10 8 8 7 8 9 10 9 9 23 34 40 35 21 37 51 29 15 13 9 13 18 19 19 16 16 15 15 19 21 19 14 10 9 9 7 5 5 5 5 5 5 6 6 7 8 9 9 11 14 13 13 13 14 16 19 22 21 20 28 31 31 28 21 23 28 29 31 32 33 35 36 37 36 38 44 45
98 99 100 94 83 77 64 37 18 12 11 9 8 8 6 9 11 8 9 21 37 41 39 31 27 47 49 23 14 14 11 14 16 17 17 16 17 17 19 19 19 18 13 10 9 8 7 6 6 5 4 5 6 6 7 7 8 10 10 11 14 15 15 14 15 18 20 22 21 22 29 28 26 25 21 25 28 29 33 33 33 34 35 37 37 40 45 45
100 100 98 95 85 72 57 36 20 14 11 10 8 6 8 10 9 8 20 36 41 38 33 29 40 56 43 19 14 15 15 15 16 17 17 18 18 18 20 19 19 17 13 11 9 8 9 8 7 5 5 6 6 6 8 9 10 11 12 13 14 15 16 15 17 19 21 23 22 22 24 19 19 22 23 27 27 28 33 33 33 34 36 37 38 41 44 44
99 99 96 87 70 55 46 35 22 15 12 10 7 7 10 8 7 21 37 43 40 35 34 39 54 55 31 18 16 17 21 20 18 18 17 18 17 17 18 19 18 15 13 12 9 9 10 9 8 6 6 6 6 7 8 10 11 11 15 16 14 13 16 18 19 19 22 25 23 23 24 18 16 21 25 28 27 27 31 32 33 34 35 37 38 41 41 42
100 98 93 73 49 38 35 28 20 16 13 9 8 9 8 7 18 38 45 42 38 39 50 56 55 46 24 16 18 17 21 19 17 18 18 17 15 15 16 17 17 13 12 11 9 10 9 9 8 6 5 6 7 7 8 11 12 12 16 17 14 13 17 21 21 18 20 26 26 23 23 19 16 21 28 29 27 28 30 30 32 34 35 38 39 39 39 41
98 96 93 68 37 27 26 21 17 16 12 9 10 8 7 19 38 50 49 47 45 50 65 59 43 39 25 15 16 14 15 16 15 16 16 15 14 15 15 16 15 12 11 10 10 9 8 9 8 6 6 6 7 7 9 13 14 14 15 15 14 13 15 19 22 20 20 24 26 24 22 19 19 24 29 29 27 28 29 29 31 33 35 38 39 38 39 41
95 96 95 67 32 22 20 17 16 13 12 11 10 7 14 36 51 56 58 59 60 63 67 57 41 33 22 17 16 11 12 15 14 13 12 14 15 15 14 13 13 11 11 9 9 9 7 8 7 7 6 6 7 7 10 13 13 15 16 15 14 13 14 16 20 21 21 24 24 24 24 20 21 26 30 29 28 29 28 29 30 32 35 38 40 38 38 41
95 98 93 64 29 18 17 16 14 13 17 13 5 10 28 50 58 60 62 57 51 45 38 38 35 22 13 15 14 11 12 12 12 10 10 14 16 14 13 12 12 11 10 9 8 8 7 7 8 8 6 6 7 7 9 10 10 13 13 14 14 13 14 13 16 17 20 25 23 22 24 21 20 26 31 30 29 31 30 29 30 32 34 37 39 39 38 40
97 94 81 57 29 15 15 15 10 16 24 15 13 24 32 37 37 37 43 36 28 19 11 15 20 15 12 11 9 10 11 10 11 8 9 14 14 13 12 11 12 12 10 8 7 7 6 7 8 7 6 5 5 6 8 8 9 11 12 13 12 12 13 11 13 15 19 23 21 20 22 21 19 22 28 31 31 33 32 32 33 33 34 37 39 39 39 40
98 85 66 51 31 14 13 12 12 22 26 23 33 33 18 14 14 15 19 16 11 10 7 7 8 10 10 8 8 9 10 10 10 8 10 13 12 13 12 12 14 13 11 8 7 7 6 7 7 5 5 4 5 5 6 7 8 10 11 12 12 11 11 10 12 16 19 20 19 19 20 21 20 20 25 31 33 33 32 33 34 34 35 36 38 39 39 39
86 72 59 53 33 12 10 10 13 23 26 31 39 24 11 16 17 17 17 11 8 7 7 7 6 7 7 7 8 8 10 12 10 9 11 13 12 13 12 12 14 13 11 9 7 9 8 7 5 4 4 4 4 4 5 7 8 9 10 11 13 11 10 13 16 19 21 20 19 19 21 21 20 20 24 30 33 32 31 31 33 35 37 38 39 40 39 40
73 67 57 47 29 13 10 9 15 28 32 35 34 20 18 23 18 19 19 13 11 7 6 7 7 7 7 8 9 9 12 11 10 9 10 13 13 12 12 12 13 12 12 10 9 9 8 6 4 3 4 3 4 4 5 7 7 9 9 11 13 10 11 17 20 21 21 20 19 19 22 22 21 21 23 27 30 30 30 30 30 33 37 38 37 38 39 41
67 67 56 40 28 16 5 9 23 36 38 35 34 28 26 26 21 21 19 15 12 9 7 8 7 8 8 10 11 11 12 11 10 8 8 13 12 11 12 12 12 12 11 11 9 8 6 5 4 3 4 4 5 5 5 6 7 8 9 10 11 10 11 15 18 21 21 21 21 20 25 26 23 22 22 24 28 29 29 30 32 33 34 37 36 37 38 39
61 57 49 35 30 17 4 21 39 36 30 28 30 32 31 29 26 24 22 17 12 10 11 11 10 11 11 13 14 12 12 12 10 8 8 11 11 11 12 11 12 12 12 11 9 7 5 5 5 4 5 5 4 4 5 5 7 8 8 9 10 10 11 12 15 20 24 26 23 22 29 29 21 20 21 22 26 30 30 32 35 36 36 37 38 37 37 37
56 47 41 33 33 26 10 22 39 31 23 25 27 32 34 31 27 27 25 18 12 11 13 15 14 13 13 14 13 12 13 13 10 9 9 9 9 10 11 11 11 11 11 10 10 8 5 5 6 5 5 5 4 4 4 4 6 9 8 8 9 9 11 12 13 19 24 24 21 21 29 29 21 19 20 20 24 30 33 33 34 37 38 38 38 37 37 36
49 40 37 31 33 43 35 27 38 33 20 24 30 32 33 28 24 26 25 18 13 12 12 16 16 14 14 13 12 14 14 12 10 9 10 9 8 8 11 12 12 12 10 10 12 10 7 6 6 5 5 4 4 4 4 4 6 8 7 7 9 9 12 13 14 19 19 18 19 19 24 29 24 19 18 20 23 29 35 36 34 36 38 38 37 36 36 36
44 32 32 30 24 45 59 55 56 41 21 25 31 29 28 26 25 26 25 19 13 11 12 14 16 14 13 13 12 13 12 10 11 11 9 9 9 9 11 12 12 11 10 12 13 10 8 8 6 6 5 4 4 4 4 4 5 7 7 7 8 9 11 11 13 16 16 18 24 21 20 28 28 19 18 23 25 29 34 36 35 35 36 37 36 33 34 35
44 27 26 26 19 36 64 76 66 39 26 31 28 26 29 31 30 23 20 19 11 9 11 12 14 13 13 15 14 13 12 11 12 11 9 9 10 10 11 10 10 11 11 11 11 8 8 8 6 5 5 4 4 3 3 4 5 6 6 7 7 8 9 10 12 14 15 20 25 21 19 27 28 19 18 24 27 27 26 28 32 33 33 35 35 33 32 34
46 29 19 25 35 49 66 71 55 31 27 31 25 28 35 34 29 20 20 20 11 9 10 10 12 12 13 15 14 14 14 12 11 11 11 10 10 10 11 9 9 11 11 11 10 8 7 7 6 5 4 4 4 3 3 4 5 5 7 8 8 8 9 10 11 13 17 21 22 19 16 23 28 19 15 21 26 24 18 19 25 28 31 33 34 33 31 33
50 29 16 26 46 62 59 46 39 32 28 30 27 29 32 27 21 19 21 16 9 11 11 10 11 10 11 13 11 12 12 11 12 13 13 11 10 11 11 11 11 12 13 13 12 9 8 8 7 5 4 4 4 4 4 4 4 5 7 8 9 12 13 14 14 17 23 24 21 16 13 21 27 20 13 15 19 19 15 13 16 21 28 31 33 32 31 32
49 27 15 13 29 56 51 28 34 40 32 34 33 23 20 21 19 18 18 11 8 11 10 10 12 10 11 10 10 10 9 10 11 12 13 10 10 12 11 12 12 14 16 14 13 11 10 9 7 6 5 4 4 5 5 5 4 5 6 8 13 17 19 20 20 21 25 23 19 14 12 19 24 18 13 12 13 14 12 12 11 13 20 27 32 32 31 31
46 26 13 8 27 60 57 40 49 54 48 46 34 15 12 19 19 15 13 9 10 11 10 11 11 10 11 10 10 9 7 9 10 11 12 10 10 11 10 10 10 13 15 14 14 13 12 11 8 8 7 5 5 5 5 5 4 5 6 9 14 18 22 24 21 22 24 19 15 13 14 20 21 16 13 12 12 11 10 10 10 11 14 21 28 30 30 30
39 20 11 16 38 59 60 61 65 62 60 49 25 12 13 18 17 12 11 9 9 11 11 12 12 11 11 10 10 9 8 9 10 10 11 10 11 11 10 10 9 11 12 13 14 13 14 14 10 8 7 6 5 4 4 5 5 6 5 7 12 15 20 22 20 20 21 18 14 15 19 22 19 15 14 13 11 10 9 9 10 13 17 19 24 27 28 29
32 25 28 37 48 52 55 67 69 64 58 37 14 11 15 16 14 11 11 9 7 9 10 11 12 12 11 10 9 9 9 10 10 10 11 11 12 11 10 10 9 11 11 13 14 12 13 13 8 7 7 6 6 4 3 4 6 6 4 6 10 11 14 16 16 15 15 17 17 17 21 19 13 14 15 14 12 10 10 10 10 15 20 22 24 26 27 28
40 40 42 43 48 54 60 67 70 67 52 25 10 10 11 12 11 9 11 9 6 8 8 9 10 11 11 10 9 10 9 9 10 11 11 10 11 11 10 9 9 10 11 11 12 12 13 11 7 7 7 5 6 5 3 4 6 6 5 6 8 7 10 13 15 13 14 18 17 16 20 17 12 14 14 13 12 10 10 11 10 13 19 24 26 25 26 27
57 53 45 39 44 55 64 71 73 66 46 24 14 10 7 7 7 7 11 12 9 8 8 9 9 8 9 9 9 9 9 9 9 11 11 11 11 10 10 10 9 10 10 10 11 11 11 10 7 7 7 5 5 5 4 3 4 6 7 6 6 7 9 11 15 17 19 21 16 14 18 18 16 16 13 11 11 10 9 9 8 10 16 23 25 25 26 26
68 58 49 47 51 54 62 71 70 57 40 27 20 14 8 6 5 5 9 13 11 9 10 10 8 8 8 8 8 7 9 10 9 10 11 11 11 10 9 10 10 10 9 9 11 10 10 10 8 7 7 6 4 5 5 4 4 5 6 5 7 11 14 14 16 19 20 20 17 14 13 15 17 15 12 11 11 10 9 9 8 8 14 21 23 24 26 26
62 44 35 45 55 53 59 68 61 47 37 28 22 18 10 5 5 5 6 8 9 10 11 10 9 10 9 8 8 8 10 10 8 10 11 11 12 10 9 10 10 10 10 9 11 10 10 12 10 7 6 6 5 5 6 6 5 4 5 6 7 9 12 13 15 16 18 19 18 15 13 14 15 12 10 12 12 10 9 9 9 7 11 18 21 22 25 28
49 32 26 44 58 52 54 59 50 43 40 29 19 15 10 7 6 5 4 5 6 9 10 9 9 10 11 10 9 10 11 9 8 10 10 10 11 11 9 9 10 10 10 10 11 10 11 13 13 9 6 6 7 6 5 5 5 5 6 8 8 7 9 10 11 12 14 17 17 16 15 13 11 10 10 10 10 10 9 9 9 8 7 11 17 21 25 29
49 39 30 44 58 53 51 50 40 35 34 27 19 14 10 9 7 6 5 4 5 5 6 7 8 9 11 10 9 10 10 10 10 10 9 9 10 11 10 8 9 10 10 11 11 11 12 14 14 11 9 8 7 6 5 4 4 5 6 7 7 8 10 11 13 13 12 13 14 15 16 13 9 10 10 10 10 8 8 8 8 8 6 7 15 21 25 30
47 36 23 31 48 50 46 42 33 27 25 22 18 15 12 12 10 8 6 5 5 5 5 7 8 8 9 9 9 10 9 10 10 9 9 8 8 10 9 8 9 8 9 11 10 10 12 13 14 13 11 10 8 6 6 4 3 4 5 5 5 6 9 12 15 15 12 12 12 11 16 14 8 8 10 10 10 8 8 8 7 7 6 8 16 19 24 30
41 30 20 27 43 48 47 44 32 23 22 20 16 14 14 15 13 11 9 7 6 6 6 6 7 7 8 8 8 9 8 10 10 9 9 8 7 8 7 8 8 8 9 11 10 10 12 14 17 17 13 10 8 7 6 5 5 4 4 4 5 5 6 8 11 13 12 13 13 13 17 14 8 10 12 10 9 7 7 7 7 9 8 11 19 22 24 31
43 35 28 36 47 48 48 45 33 25 25 21 18 18 16 15 15 14 13 10 8 7 7 6 7 7 7 7 8 8 8 10 10 8 8 8 7 6 6 6 8 9 9 11 11 10 13 17 19 20 19 18 15 12 10 9 7 6 5 4 4 5 5 6 8 11 12 13 14 14 16 13 9 14 16 13 11 8 7 7 8 9 9 12 22 27 29 35
46 41 33 36 45 47 45 38 31 31 30 27 27 28 25 21 18 16 16 14 11 8 8 7 7 7 6 7 7 7 8 8 9 8 7 7 6 5 5 6 8 8 8 15 17 12 13 17 18 20 22 22 22 19 15 12 10 8 7 5 5 4 5 7 8 10 13 15 15 15 15 13 10 13 15 14 13 10 9 8 6 8 12 18 27 33 35 39
48 45 34 31 36 41 40 33 31 34 33 33 36 33 28 26 21 16 15 16 14 12 11 10 8 7 7 8 8 8 8 7 8 9 9 8 7 6 6 7 8 9 12 20 23 17 16 18 18 20 20 17 18 17 13 12 11 10 9 7 6 5 4 6 8 10 13 14 15 16 15 13 11 12 12 11 12 11 9 8 7 11 17 22 30 37 38 39
50 47 40 44 47 40 33 28 29 33 33 35 39 36 31 28 25 21 18 16 14 13 12 12 11 11 11 10 10 10 9 9 8 9 9 9 8 8 9 10 10 13 17 19 20 21 24 23 20 21 19 14 13 13 11 11 11 11 10 8 7 6 6 6 7 9 11 12 14 15 15 15 12 10 10 10 10 10 9 8 7 10 15 20 30 38 36 36
46 44 39 52 59 50 42 38 36 37 34 31 35 36 34 31 28 26 23 20 16 13 14 14 12 12 13 13 14 14 13 13 12 11 10 10 9 9 10 11 10 13 15 14 15 22 29 28 21 19 19 15 12 11 10 10 11 10 10 9 8 7 7 8 8 8 9 11 13 14 15 16 13 9 8 9 9 9 9 8 7 6 10 20 32 36 33 32
40 40 38 46 55 54 52 47 40 37 34 32 34 35 35 35 31 27 26 27 25 19 18 19 15 11 12 12 15 20 20 18 17 15 13 11 10 10 11 11 10 10 11 11 14 22 29 30 23 18 18 16 13 12 10 9 10 10 9 9 9 8 7 8 8 7 8 9 10 10 14 15 12 9 8 7 8 8 7 8 7 6 11 21 29 31 29 29
41 39 39 44 50 49 47 45 41 40 38 39 38 32 29 32 33 33 32 33 37 31 22 21 20 19 17 14 16 22 23 22 22 21 20 17 14 12 11 10 10 9 9 12 18 23 28 29 23 19 20 18 14 13 12 11 10 10 10 9 8 8 8 7 8 7 8 10 9 9 13 14 11 9 9 8 8 8 7 8 9 9 12 19 25 26 27 27
47 42 41 47 52 47 46 47 47 46 41 34 32 31 33 35 37 40 36 30 33 35 29 26 29 31 28 25 26 27 25 26 29 27 25 23 20 17 15 13 12 11 11 15 22 25 26 27 25 24 25 21 15 13 12 11 10 10 11 11 9 9 9 8 7 7 8 10 11 11 12 13 11 8 8 9 8 9 10 10 10 10 13 18 24 26 28 29
55 49 44 50 57 51 46 46 45 43 36 29 33 40 44 44 40 41 40 32 28 32 32 32 35 36 34 34 34 31 26 26 27 24 23 23 22 21 21 20 17 16 17 19 23 25 26 28 28 28 28 23 16 13 12 12 15 15 12 11 10 10 9 9 8 8 8 8 9 11 10 10 10 7 8 10 7 8 13 14 13 17 21 25 27 26 28 30
Wind_Speed
22 22 20 19 19 19 18 18 18 19 20 20 21 21 21 21 20 20 20 21 22 22 22 22 21 22 22 22 23 23 23 23 18 12 11 10 7 5 7 8 11 16 19 17 17 16 14 13 12 12 11 8 7 6 7 7 6 5 5 4 2 0 1 3 3 1 3 7 10 12 11 8 9 9 6 6 8 10 9 8 9 7 6 10 17 23 26 25
22 23 22 21 19 20 20 18 18 19 20 21 22 22 23 22 22 21 21 22 22 23 23 22 21 21 21 21 21 21 22 20 16 16 12 5 4 8 4 8 16 19 20 19 20 18 14 12 13 13 9 6 6 6 6 7 7 6 4 3 2 1 3 2 2 3 2 6 10 11 11 8 9 10 8 9 10 10 9 10 10 10 11 15 20 25 26 25
23 23 23 23 21 20 20 20 19 19 21 22 22 23 23 23 23 23 23 22 23 23 23 22 21 20 20 20 19 18 18 16 15 9 4 3 7 9 5 7 17 22 22 20 19 18 14 12 14 13 9 7 6 7 6 6 7 7 5 4 2 1 1 1 1 3 2 6 11 12 11 8 9 10 9 9 10 11 10 11 12 12 14 17 21 24 25 25
23 23 23 23 23 21 21 21 19 20 22 23 23 24 24 24 24 25 24 24 24 24 23 22 20 20 19 17 16 14 12 14 8 6 9 8 13 9 4 5 14 22 22 17 16 16 13 12 15 13 9 7 7 7 7 6 6 5 5 6 1 1 2 2 2 4 4 6 11 11 11 10 10 10 9 9 10 10 10 13 14 15 17 19 21 23 24 23
23 23 23 24 24 23 22 21 21 21 22 24 25 25 25 25 25 26 25 25 25 24 23 21 20 19 16 14 11 9 10 9 3 10 5 10 13 11 6 6 13 20 20 14 14 15 13 13 13 12 9 8 8 8 9 9 7 5 6 9 3 1 3 1 3 5 6 7 11 12 12 10 10 10 10 11 9 6 9 12 14 15 19 21 22 22 22 21
24 24 24 24 24 24 23 22 22 22 23 24 25 26 26 26 27 27 27 26 25 23 23 22 20 17 13 10 6 4 7 6 2 1 5 12 11 11 8 6 14 19 19 14 14 14 14 13 12 11 9 9 11 10 9 10 9 7 7 9 6 5 4 1 4 7 8 10 11 12 11 10 11 10 10 12 6 2 6 12 13 15 19 22 23 22 21 20
25 25 25 25 25 25 25 24 23 23 24 25 27 27 27 28 28 28 28 27 26 23 23 22 19 14 9 5 1 4 8 12 11 9 12 14 9 8 10 5 16 18 18 16 16 14 14 15 15 12 10 10 11 12 10 8 10 9 8 8 7 6 6 4 5 8 11 11 11 11 11 12 12 9 9 12 6 4 5 11 13 15 19 22 22 21 21 20
25 25 25 25 25 26 26 25 24 24 25 26 28 28 28 29 29 29 29 28 25 24 23 21 17 11 5 2 3 8 10 12 12 10 11 9 4 7 9 7 17 18 18 19 18 16 15 17 17 13 12 12 10 11 10 8 10 12 10 8 7 6 6 6 6 10 12 10 9 12 12 12 12 7 8 12 8 5 7 12 14 16 19 20 20 21 20 19
25 25 26 26 26 27 27 27 26 26 26 28 29 29 30 30 30 30 29 27 25 24 22 19 14 6 4 4 7 10 7 6 6 7 5 3 2 3 5 7 16 18 18 20 19 18 15 15 18 16 12 12 11 11 10 9 8 10 13 10 7 7 6 7 8 11 12 9 10 14 12 12 11 7 8 12 8 7 10 14 15 17 18 19 18 19 19 18
25 25 26 27 27 27 28 28 27 27 28 29 29 30 31 30 31 30 28 26 24 23 18 14 9 4 6 6 9 9 4 3 4 4 5 4 3 2 2 5 15 19 17 17 18 19 16 14 17 14 10 10 10 10 11 10 4 3 10 9 7 8 6 7 9 12 12 10 13 13 11 12 11 7 7 11 10 9 12 15 16 16 17 18 17 17 17 17
25 25 27 27 27 28 28 28 29 29 30 30 30 31 31 32 32 29 26 24 22 19 14 10 5 8 7 7 9 8 3 3 3 4 6 7 5 6 7 5 13 18 16 15 18 19 19 16 14 10 7 7 9 10 11 10 4 2 6 7 8 8 6 8 10 12 11 10 13 11 9 10 10 9 7 11 13 10 13 15 16 16 15 17 17 16 15 15
25 25 27 28 28 28 29 29 30 30 31 32 32 32 32 32 30 26 25 21 17 13 10 7 6 9 6 7 11 13 9 7 5 5 8 9 9 10 8 7 12 16 15 14 16 18 19 15 13 12 7 6 9 9 8 8 6 5 7 7 7 6 7 10 11 13 12 10 13 10 7 9 11 12 8 13 14 11 13 14 15 15 14 15 16 15 13 15
26 26 28 28 28 28 29 31 32 32 33 33 33 33 32 30 27 25 22 16 11 9 7 2 7 9 6 7 10 13 13 10 8 8 11 11 11 10 7 8 11 14 13 13 14 16 15 10 13 16 9 7 8 4 3 8 8 7 10 9 5 6 7 10 11 14 13 10 15 11 6 8 12 15 10 13 16 14 13 13 14 14 13 14 15 14 13 15
27 28 29 28 28 29 31 32 33 34 34 34 34 33 30 27 26 22 15 9 7 5 3 4 8 7 6 9 10 10 12 11 10 11 10 9 8 8 7 8 9 11 11 12 12 12 11 8 11 12 9 9 6 4 4 8 8 8 9 8 7 6 6 11 11 15 13 10 16 12 6 5 9 14 14 14 17 16 14 14 14 13 13 14 14 14 14 15
28 29 29 29 29 30 33 34 35 36 35 35 35 31 27 27 23 15 6 4 3 0 3 6 7 5 7 11 10 8 10 10 10 10 6 4 7 8 9 10 9 9 9 10 9 8 9 8 9 9 9 8 5 7 9 7 8 9 8 8 8 6 5 12 11 15 13 10 16 14 7 3 5 13 16 14 16 17 15 14 15 15 15 14 14 14 13 14
29 29 29 30 31 33 35 36 37 37 37 36 33 27 25 24 15 6 1 0 1 5 5 3 7 6 8 6 2 4 5 6 8 8 5 3 5 7 11 12 9 9 9 8 6 8 10 8 8 8 9 9 8 10 9 7 8 9 9 9 9 8 6 9 10 15 13 10 15 14 8 4 4 12 16 15 17 17 15 15 16 16 16 15 13 13 13 13
30 30 31 31 32 35 36 37 38 38 38 35 29 26 22 16 6 1 1 3 3 5 3 4 4 6 8 3 3 5 4 6 7 5 3 4 5 8 14 12 9 10 10 8 7 8 10 9 7 7 7 9 10 11 10 10 10 9 10 9 9 11 8 8 10 13 13 11 14 16 12 6 4 11 15 15 17 17 15 14 16 15 14 14 13 13 13 13
30 31 31 31 34 35 36 38 38 38 38 30 26 25 16 7 2 2 2 4 3 3 5 4 3 5 5 5 5 2 3 5 4 5 6 4 6 12 15 10 9 12 10 9 8 9 10 9 8 8 9 10 11 12 11 12 11 10 11 9 9 11 9 9 9 12 16 14 14 15 14 11 6 9 12 14 16 16 15 14 14 15 15 14 14 14 14 14
30 30 30 32 35 36 38 38 37 38 34 26 25 21 8 2 2 4 5 6 5 4 4 3 8 6 4 3 5 2 2 3 7 11 7 5 9 12 13 10 11 13 10 9 10 11 9 8 9 10 12 13 14 15 14 14 14 13 12 11 11 10 9 11 10 12 18 15 13 15 14 15 12 9 11 13 14 14 14 13 13 14 15 14 14 14 14 15
30 30 31 34 37 38 38 37 38 35 26 24 25 15 4 2 2 3 5 8 10 11 11 7 10 11 12 8 7 6 6 7 9 12 9 10 11 13 11 10 12 11 9 9 10 11 10 10 11 13 14 16 18 18 18 17 14 13 13 12 13 11 10 13 12 13 17 14 13 15 14 14 13 10 11 12 13 14 14 14 13 13 14 14 15 15 15 16
30 31 34 37 38 39 37 37 38 27 18 22 21 9 2 5 5 3 4 9 13 14 17 15 13 17 17 13 10 6 5 7 9 9 9 12 14 13 11 12 12 10 10 11 9 9 10 11 13 16 16 16 18 19 19 18 14 13 13 12 12 12 10 11 10 11 15 13 11 14 15 14 14 11 9 11 14 14 15 15 15 16 15 14 15 17 16 14
30 32 36 37 39 40 36 38 34 18 14 19 12 4 5 7 5 5 6 10 13 13 17 17 15 18 17 16 15 9 6 8 10 10 11 14 15 13 11 13 13 10 12 11 8 8 10 12 14 17 16 16 16 18 20 19 15 13 12 10 10 12 9 6 8 10 13 10 9 12 13 13 13 12 10 12 14 13 14 15 15 15 15 14 15 16 16 15
31 33 36 37 41 40 35 38 26 9 13 15 9 3 5 4 7 6 6 8 12 11 14 15 15 16 15 13 12 11 12 12 11 12 15 16 14 12 12 14 14 12 13 13 11 9 9 11 15 16 15 16 16 17 19 17 14 13 12 10 10 12 10 6 8 12 12 10 9 10 10 10 11 12 13 14 14 13 13 15 15 15 15 16 17 16 16 16
33 33 35 39 42 39 37 33 13 3 13 14 7 2 3 4 10 8 6 7 10 8 10 11 10 11 9 4 8 14 13 11 10 12 18 18 13 12 12 13 15 13 12 15 16 13 11 8 12 16 14 16 16 16 17 14 12 14 15 13 12 13 13 10 10 11 11 11 9 9 8 8 11 14 13 12 14 14 14 15 15 15 15 16 16 16 16 17
34 34 37 41 41 40 37 21 4 9 20 11 3 4 1 7 10 9 6 5 8 5 6 7 6 6 5 4 8 11 8 9 11 10 16 20 16 11 11 10 11 13 14 17 16 14 12 6 7 14 14 16 17 15 17 14 11 14 17 17 16 14 14 14 12 11 9 9 10 10 8 7 11 15 15 12 13 15 14 16 17 16 16 15 15 16 17 17
36 36 38 39 39 43 32 8 5 20 19 4 4 3 3 9 11 9 5 4 7 3 5 5 5 5 7 7 8 8 6 8 11 10 13 19 18 12 10 9 7 12 14 14 11 8 11 9 8 13 14 17 18 14 17 17 12 11 15 18 19 16 13 13 14 12 9 8 9 11 9 8 8 12 13 13 14 15 15 17 18 17 16 16 15 15 16 17
36 36 38 38 39 38 21 6 15 21 9 2 3 3 7 11 12 7 4 4 6 2 4 2 2 4 5 7 10 8 3 4 7 13 14 16 19 14 12 11 8 10 9 9 8 7 11 12 11 13 14 15 15 13 16 18 14 11 12 17 19 17 14 13 14 12 10 8 8 11 11 8 9 9 9 11 14 15 16 18 18 17 18 19 18 17 17 18
37 37 37 37 38 30 13 13 17 11 4 4 4 7 10 13 10 4 5 5 2 2 2 2 3 3 3 6 12 8 1 2 5 11 15 16 17 13 13 15 12 12 11 9 9 8 12 15 14 14 14 12 13 14 15 17 16 12 9 13 17 17 15 14 13 11 11 10 8 12 12 9 9 9 7 9 13 15 16 19 19 19 20 20 20 20 20 19
38 37 35 38 39 24 8 10 12 8 7 8 8 10 11 10 6 4 5 4 2 2 2 3 4 6 6 6 11 11 5 5 3 5 13 16 15 10 10 14 14 14 15 14 11 6 9 14 15 15 13 11 12 15 16 17 16 9 5 10 14 14 14 13 11 10 12 13 11 13 14 10 9 9 9 10 12 13 14 16 17 19 20 20 21 21 20 18
40 37 35 39 33 16 6 11 15 12 10 8 8 10 9 6 4 5 7 4 2 3 4 4 4 7 9 7 9 10 9 8 3 6 11 13 14 11 6 8 12 13 13 15 15 10 6 8 11 12 13 12 12 14 14 15 16 9 6 10 11 10 11 10 9 8 11 13 13 15 16 12 10 10 9 10 11 13 12 11 13 17 20 20 20 20 21 19
41 38 35 36 28 13 8 9 8 6 3 4 9 9 8 5 5 8 7 2 2 5 7 7 7 7 9 7 5 8 9 8 8 10 10 11 13 13 8 7 9 10 10 12 14 15 11 9 8 10 12 13 13 13 11 13 16 11 8 10 9 7 7 7 8 8 10 11 12 17 17 14 11 10 8 10 13 14 12 10 12 15 19 20 18 19 20 19
42 39 35 33 26 15 12 8 3 3 4 5 9 7 6 6 8 10 6 1 1 6 6 6 9 9 8 6 4 6 6 6 10 12 11 12 12 13 13 11 10 10 11 10 11 13 14 12 11 10 12 15 14 12 11 12 14 13 10 11 10 8 7 8 9 9 9 10 12 17 17 14 12 11 11 10 12 13 11 11 12 12 14 16 18 18 17 17
43 40 34 30 22 15 17 14 10 9 8 6 6 5 6 8 10 10 9 5 1 2 2 5 8 9 8 7 7 7 5 5 10 12 13 14 12 14 17 16 15 12 10 10 11 11 11 12 15 14 11 15 16 12 11 11 12 14 12 11 11 10 9 11 10 9 10 12 14 15 13 12 10 11 14 15 14 14 13 13 13 11 10 12 16 17 16 17
43 37 31 27 20 14 12 10 10 8 6 6 5 6 10 12 9 8 12 11 4 2 3 5 6 9 10 9 6 5 6 6 9 12 13 13 12 12 15 18 20 15 9 9 10 10 11 10 15 17 11 13 18 15 13 12 12 14 14 13 12 11 10 10 9 9 10 10 13 14 11 10 10 6 7 12 14 14 13 13 12 10 9 9 12 15 16 18
40 32 27 22 15 9 6 6 7 6 6 7 6 9 13 12 8 8 10 11 8 6 5 5 6 8 10 10 8 6 6 5 8 11 11 12 12 11 13 15 19 17 11 10 8 9 13 10 12 19 15 15 18 17 15 13 11 12 13 13 13 12 11 9 10 12 11 9 11 12 8 8 9 4 4 7 9 10 11 12 11 10 10 10 11 14 16 16
35 26 21 14 8 5 4 7 8 9 8 7 8 12 12 10 8 7 5 7 10 9 8 8 9 9 9 9 9 9 7 5 7 8 9 12 13 13 14 13 17 19 14 10 6 7 11 8 9 17 19 18 17 16 17 15 9 9 13 14 13 13 13 11 11 12 11 11 11 9 8 9 10 9 10 13 13 13 13 12 12 11 11 12 12 13 15 15
27 21 17 12 6 4 5 7 9 11 8 7 11 12 10 11 11 9 4 4 5 6 9 10 9 10 11 8 10 12 10 8 8 8 8 11 11 13 16 13 16 21 17 12 7 6 8 7 9 15 18 18 17 16 19 18 13 8 10 14 12 11 12 11 11 10 11 12 10 11 13 11 11 9 10 15 17 17 16 15 14 12 11 13 13 13 15 16
22 20 16 10 4 2 4 7 10 9 6 8 14 14 11 11 12 12 8 5 5 7 10 10 7 9 11 9 10 12 11 9 9 9 8 8 8 11 15 13 15 20 20 16 10 7 8 8 9 16 17 16 16 16 16 18 20 15 9 11 12 10 9 10 10 10 12 11 10 14 16 12 11 10 9 12 14 15 16 15 14 11 11 13 13 14 16 16
18 14 7 3 4 2 2 8 9 7 7 10 12 12 10 13 14 13 12 10 9 9 10 11 9 9 10 10 9 9 11 10 9 9 8 7 6 9 13 12 13 18 21 19 12 7 8 7 7 14 16 15 14 14 13 14 19 18 12 10 11 11 10 10 9 9 10 11 10 14 15 10 10 11 12 12 11 11 11 11 10 9 9 12 12 12 14 15
11 8 2 6 5 3 4 6 7 6 8 11 11 10 10 12 13 14 15 14 10 9 10 12 12 10 10 12 10 8 9 9 9 7 7 7 6 6 10 12 13 16 20 21 15 9 8 8 7 9 14 14 11 12 15 14 14 15 12 11 11 10 9 11 11 10 11 12 11 12 13 10 8 10 14 15 12 10 10 10 11 10 11 12 11 11 12 14
8 5 1 6 3 1 1 6 8 6 8 10 12 13 11 10 10 12 15 15 13 11 11 13 13 11 11 11 11 9 8 8 9 8 6 8 7 5 7 10 12 14 16 18 16 11 8 8 8 8 10 11 11 13 17 19 16 14 12 13 13 10 10 11 12 11 12 12 12 12 12 10 7 8 11 15 14 14 14 13 12 13 15 12 8 10 11 13
7 5 3 4 4 6 6 7 7 7 9 10 11 12 10 8 10 12 12 14 13 12 12 13 13 13 12 11 11 10 9 9 10 10 8 8 10 7 5 4 8 11 12 12 14 12 8 7 9 9 8 10 13 15 17 20 20 17 14 15 15 13 12 12 11 11 12 13 14 14 12 10 8 8 10 13 15 15 15 14 13 14 15 10 7 9 11 12
5 8 12 11 6 7 6 7 8 8 9 10 12 13 11 9 11 12 12 13 13 11 11 12 14 15 14 13 12 12 11 10 11 12 10 9 10 9 4 2 5 8 9 9 12 12 8 6 8 10 9 9 13 15 15 17 18 16 14 15 15 16 16 14 12 10 11 13 14 13 13 10 7 7 8 10 13 15 15 14 13 13 12 8 7 8 9 10
6 9 10 7 6 8 7 7 7 8 9 11 12 13 12 11 12 12 12 13 12 11 12 12 13 14 14 13 14 13 12 10 11 12 11 9 8 10 12 9 7 8 7 5 6 8 8 7 8 9 8 8 11 12 12 13 14 12 13 16 18 20 22 18 14 12 12 15 17 15 12 10 8 8 7 9 13 16 16 15 14 13 12 8 5 6 7 8
7 7 6 6 8 8 7 6 7 8 9 10 12 12 12 11 12 14 14 13 12 12 11 11 13 14 13 14 15 15 15 12 10 9 10 11 9 10 13 12 10 12 8 1 3 3 8 9 9 10 11 11 11 11 10 11 12 11 14 19 21 23 25 19 13 13 13 13 16 15 11 10 12 12 11 12 14 13 14 14 13 12 11 8 4 5 7 8
6 5 5 4 6 7 7 8 8 8 8 9 9 10 12 11 11 13 15 15 14 14 12 10 12 13 14 16 15 15 17 16 12 9 9 9 9 9 10 10 11 11 5 4 5 5 7 8 11 13 14 12 12 11 12 12 13 14 18 21 21 22 24 20 13 13 13 11 13 14 12 13 15 15 15 15 15 14 13 13 13 12 11 9 5 6 6 7
5 5 5 4 3 5 7 6 6 6 7 8 7 7 10 11 9 9 12 13 13 15 13 12 13 13 13 16 15 14 15 16 15 14 12 10 9 7 7 8 10 9 4 5 8 8 6 8 13 17 18 18 16 15 15 15 15 17 20 21 21 20 22 21 17 16 15 12 13 14 14 16 17 16 15 15 15 15 14 14 14 13 12 9 6 7 8 8
5 5 5 5 5 5 5 5 7 8 10 10 8 9 11 12 11 9 8 10 12 14 12 11 15 17 15 14 13 12 14 14 15 16 14 12 10 9 8 9 12 11 8 9 10 7 7 9 12 16 19 21 22 21 19 17 16 17 19 21 22 22 23 21 20 21 19 15 13 13 16 19 19 19 19 16 14 14 13 14 15 15 14 9 7 8 9 10
6 6 5 4 5 6 8 11 12 11 12 11 8 9 11 12 13 11 7 7 10 12 11 12 15 18 20 19 14 12 12 12 13 14 13 13 12 10 9 10 11 12 12 11 9 7 7 9 12 16 18 20 23 24 23 22 20 20 21 22 23 24 25 24 23 23 23 21 19 18 18 19 17 18 22 20 17 16 14 14 15 15 15 10 7 9 10 11
6 6 5 4 5 7 8 10 10 9 9 8 8 9 10 12 12 10 8 8 9 9 11 13 11 9 13 17 15 13 13 11 10 10 9 11 12 11 10 9 9 12 14 11 7 7 7 8 9 12 12 16 20 22 23 23 23 22 22 23 24 24 25 25 24 23 22 21 22 23 22 18 14 15 19 19 18 17 17 17 16 15 15 13 10 10 11 12
8 8 7 6 6 7 6 6 7 7 6 6 7 7 7 8 8 10 10 11 12 11 9 7 6 7 5 8 11 12 10 6 7 7 5 6 8 7 6 7 8 10 12 10 8 7 8 8 7 7 9 11 15 20 23 23 22 22 22 22 23 22 21 21 20 21 21 21 22 22 19 15 13 15 17 18 18 18 17 18 17 16 16 14 11 10 12 13
7 8 7 5 6 7 6 6 6 6 7 5 5 5 6 7 9 10 9 8 8 8 7 9 11 8 5 6 6 5 6 7 8 9 8 7 9 9 8 7 9 9 8 10 9 6 6 6 5 6 8 9 12 16 17 18 18 17 17 19 22 22 21 21 20 21 23 21 19 17 15 14 14 15 17 19 21 20 17 15 15 14 13 12 11 10 11 11
Wind_Direction
353 351 351 349 347 347 348 350 350 351 351 349 348 346 345 344 342 340 337 333 332 331 330 330 328 327 326 325 323 324 324 323 315 290 266 278 310 313 271 234 204 182 168 165 166 168 171 184 184 178 186 187 216 225 190 208 228 224 239 249 259 54 84 99 136 110 84 135 154 159 170 166 149 160 145 154 162 145 151 145 137 136 134 131 129 139 146 150
351 350 350 348 347 347 346 348 349 350 349 347 345 343 343 342 340 338 336 333 330 328 328 328 326 326 324 324 324 323 325 318 293 275 265 257 329 345 332 200 205 192 174 173 177 179 179 182 177 178 189 194 207 197 181 189 204 229 247 252 267 23 71 77 126 135 132 140 151 164 172 172 157 156 163 173 163 156 162 150 147 135 127 129 132 142 147 154
350 349 348 347 347 346 345 346 348 349 347 344 343 341 341 339 339 337 335 333 330 326 325 324 325 325 323 323 322 326 327 306 283 264 183 66 359 342 354 172 198 197 187 184 188 192 195 185 174 182 200 215 205 188 199 182 189 229 245 247 229 61 105 189 203 169 156 139 154 167 170 173 158 155 175 181 165 173 178 160 161 151 142 143 142 147 151 158
350 348 347 346 345 344 344 344 345 346 344 342 340 339 339 338 337 336 334 332 328 324 321 322 322 321 322 321 320 330 320 289 286 129 121 25 6 0 3 157 182 194 194 193 196 201 207 193 180 194 214 227 217 204 218 187 189 219 222 251 212 72 255 183 206 196 165 154 161 164 167 172 160 162 182 181 172 183 186 173 171 160 152 151 149 152 156 162
349 348 347 345 344 342 342 342 343 344 342 340 338 338 338 337 336 335 334 330 327 323 318 318 319 320 321 317 321 333 308 286 68 117 118 3 359 2 9 170 171 184 193 199 201 201 207 199 187 206 224 233 224 212 225 204 210 232 220 251 260 265 274 157 203 199 171 168 163 164 172 165 160 175 186 186 185 182 179 177 172 159 155 156 155 156 160 165
347 347 346 344 343 340 340 340 340 342 341 339 336 336 336 335 335 333 332 329 325 320 316 315 316 318 316 314 321 314 289 281 24 117 298 326 325 355 17 179 175 180 193 201 202 199 202 198 193 208 218 230 227 219 227 206 208 238 225 238 244 239 256 230 208 190 177 181 170 169 171 157 169 182 185 194 190 122 165 168 162 158 157 158 157 159 164 169
346 346 344 343 342 339 339 338 339 340 340 338 336 335 335 334 333 332 330 326 322 318 314 311 311 312 308 319 294 248 259 265 282 288 290 298 293 349 12 169 178 186 195 199 200 198 197 197 199 208 213 222 228 226 229 205 202 235 237 224 225 229 244 248 208 187 186 189 175 168 167 168 181 177 179 195 169 92 162 160 154 155 157 159 160 164 168 170
345 345 343 342 341 339 338 336 338 340 339 337 335 335 333 332 331 330 327 323 321 316 311 307 306 303 279 221 259 263 260 263 278 288 285 285 282 353 16 149 179 190 197 199 199 198 198 201 202 205 216 221 226 225 222 213 211 228 239 230 219 226 247 247 212 191 190 189 172 168 173 176 180 165 176 192 160 129 161 152 153 156 158 164 166 169 170 171
345 344 342 341 340 338 337 336 338 339 339 336 335 334 332 331 329 327 324 321 318 313 308 303 298 281 199 201 264 275 276 277 289 294 277 250 271 6 46 158 184 191 200 205 204 205 204 205 206 205 220 226 225 225 214 218 223 220 230 235 227 232 246 236 210 192 189 183 171 173 180 178 171 159 179 184 155 139 157 154 158 161 164 170 171 172 171 173
344 343 341 340 339 338 337 336 338 340 338 335 333 332 331 330 328 325 321 319 316 310 304 298 286 203 183 224 257 268 293 306 281 268 241 233 264 317 324 202 190 196 206 208 209 212 210 210 209 208 233 238 225 227 217 219 246 231 228 235 241 251 251 224 205 191 188 178 175 181 182 173 165 177 189 169 152 149 159 162 164 167 170 173 174 174 173 176
344 342 341 340 338 337 337 336 339 340 337 335 332 330 329 328 326 323 320 318 314 305 300 295 251 178 199 239 251 265 313 303 242 220 239 248 265 286 292 241 198 204 209 208 212 214 214 217 211 204 229 234 218 225 223 220 242 239 228 230 232 250 238 210 198 185 184 176 182 186 175 168 169 202 205 156 155 162 163 166 169 173 175 176 178 174 175 181
343 342 340 339 338 337 336 337 339 339 337 334 331 329 328 326 324 321 319 318 309 297 296 289 198 172 216 243 243 257 277 279 247 226 248 257 267 276 277 243 211 210 212 212 211 210 214 217 211 206 207 218 213 219 217 205 219 220 226 233 211 222 220 201 190 182 182 176 177 173 167 185 191 208 200 153 158 165 166 170 171 177 177 177 180 175 178 185
343 342 340 339 337 337 336 337 339 339 336 333 331 328 326 325 322 319 319 314 302 289 288 267 165 175 231 253 251 258 266 265 255 256 261 261 262 259 247 232 216 215 220 217 207 204 209 213 215 214 215 230 213 182 179 191 209 218 222 239 212 212 215 191 184 182 185 175 167 170 190 205 202 205 187 156 164 168 171 175 175 179 179 180 181 179 182 186
343 341 341 338 337 338 337 337 339 339 335 332 330 327 326 324 319 318 316 305 299 285 270 136 150 184 233 263 269 265 263 256 254 259 257 249 236 220 208 203 205 214 216 211 203 193 202 213 218 219 224 245 225 143 185 196 206 217 215 230 225 231 200 175 182 182 182 169 169 189 228 202 184 191 178 163 172 175 177 179 178 181 179 182 183 183 186 186
342 341 340 338 339 340 339 338 340 339 335 331 329 328 327 320 316 317 307 295 302 288 98 128 163 208 258 270 269 268 264 244 233 230 219 208 201 191 183 181 190 198 195 200 200 188 199 208 212 216 208 226 235 192 204 205 204 213 214 215 216 232 177 164 183 190 182 163 178 203 237 215 163 171 172 171 177 181 187 184 181 183 181 184 185 187 190 186
342 341 339 340 343 342 341 340 340 338 334 330 329 329 326 317 314 309 265 114 113 116 107 159 189 225 280 293 239 251 252 207 194 189 181 216 216 186 166 168 178 182 180 188 198 196 200 206 210 218 204 201 213 207 206 209 206 208 218 220 210 214 187 165 186 198 186 161 182 206 225 228 162 162 170 176 181 183 193 191 185 186 184 185 188 189 192 187
341 340 340 343 344 343 343 342 341 338 333 330 331 330 324 315 300 254 124 116 124 132 161 254 213 226 265 269 233 249 219 173 167 174 223 256 230 176 157 160 174 178 177 175 189 199 195 201 202 208 216 205 205 209 210 210 207 202 213 225 219 214 203 174 182 198 193 174 187 206 221 230 141 156 173 180 184 186 194 196 190 189 188 187 189 191 192 191
340 339 340 342 344 344 343 342 341 338 332 330 334 333 324 308 247 169 140 140 136 172 215 254 223 234 242 211 233 261 133 157 191 256 280 248 197 174 163 166 164 166 173 173 188 196 187 195 197 199 208 205 204 208 210 211 207 204 207 216 219 219 213 195 185 191 194 192 196 204 217 227 190 161 177 184 187 192 196 198 196 193 191 189 190 194 193 194
340 338 340 340 343 344 342 342 340 338 334 334 341 338 321 261 202 188 199 191 184 222 244 192 194 253 313 209 217 242 213 240 268 275 260 172 170 175 173 174 164 168 179 175 184 192 188 190 198 206 205 201 206 207 212 217 213 213 212 214 219 217 213 210 201 188 190 197 206 206 214 223 212 182 180 185 188 198 200 198 201 199 196 194 194 196 195 197
339 338 339 340 343 343 341 340 339 338 337 343 345 335 291 268 255 203 211 224 229 249 272 255 219 255 287 269 252 263 259 246 256 262 224 172 168 174 177 177 174 183 194 182 177 185 195 201 202 209 207 202 205 208 216 223 223 221 216 219 227 227 215 209 202 188 188 199 211 211 218 223 221 206 190 187 188 197 203 200 203 203 201 199 198 199 198 200
337 338 340 342 343 341 339 339 339 337 344 351 342 319 342 5 329 330 320 270 252 245 256 257 243 253 262 262 266 271 267 238 232 239 211 181 176 177 176 179 184 193 200 196 178 174 199 215 210 208 211 209 206 208 215 222 224 221 220 222 226 233 227 201 187 185 193 208 216 212 221 226 225 222 199 191 195 197 203 204 205 205 205 204 203 203 202 201
337 338 340 341 342 340 338 339 337 333 352 354 331 309 54 41 355 334 314 289 273 249 245 249 247 252 255 256 257 250 247 237 229 227 201 183 187 187 177 183 198 197 191 195 183 177 205 223 216 206 211 215 209 209 213 217 220 219 226 228 224 230 227 182 170 190 197 214 223 210 222 231 225 224 211 203 205 203 204 208 208 207 206 206 206 205 203 201
337 338 340 342 342 339 338 338 336 334 354 346 311 318 70 46 358 327 275 283 285 254 233 236 238 243 249 250 236 213 221 227 224 215 192 188 198 196 186 189 204 201 186 192 197 198 208 218 219 210 209 213 208 207 211 214 219 222 226 227 228 226 218 190 186 197 199 214 237 226 226 237 231 227 221 214 213 209 207 211 212 210 210 210 208 206 204 201
338 338 340 342 341 339 338 339 341 354 340 327 287 274 85 8 354 336 283 269 282 257 221 229 234 237 247 246 183 192 215 220 217 206 185 190 198 194 201 198 202 207 194 198 206 216 220 212 217 212 202 207 208 206 210 214 217 220 224 225 231 225 217 210 193 191 202 213 232 240 237 240 235 231 225 217 216 214 209 210 213 212 212 214 212 209 207 204
338 339 340 342 342 339 338 339 11 339 328 321 239 186 59 344 345 333 298 259 271 252 194 209 216 214 201 138 160 188 216 215 217 208 181 191 198 187 200 203 205 210 200 201 206 219 221 187 194 208 200 207 216 211 210 215 217 217 220 224 232 231 223 217 195 183 208 216 210 221 240 246 232 231 229 219 214 212 208 207 210 210 210 213 215 212 210 208
337 339 340 342 341 340 341 346 341 328 322 340 124 184 308 332 333 319 279 257 270 226 146 185 196 173 169 163 169 182 211 208 207 203 185 196 203 197 202 198 205 215 203 199 206 223 216 182 179 208 207 208 216 217 211 213 222 222 213 215 228 235 230 222 203 192 217 227 203 206 233 254 241 233 226 218 216 211 207 210 209 206 205 208 212 211 209 209
337 336 338 340 340 341 341 312 321 325 315 64 64 287 309 321 321 307 251 257 265 200 123 180 183 158 171 167 169 178 187 145 170 192 192 198 200 203 214 196 191 219 203 188 206 212 204 194 189 206 212 209 213 218 209 208 221 228 212 207 217 226 226 220 208 208 228 234 216 213 226 249 253 244 225 214 217 212 207 213 212 207 206 206 208 210 209 209
335 334 336 337 337 336 316 284 308 319 310 348 324 293 314 315 303 271 252 268 248 113 126 151 116 155 178 164 185 210 276 130 179 185 184 196 197 197 215 206 200 206 188 188 210 184 188 204 197 195 209 214 214 218 209 207 221 234 224 205 206 217 224 222 216 220 228 229 228 222 222 240 251 245 229 210 216 217 213 215 214 210 208 206 207 208 208 209
334 332 333 334 334 335 315 270 278 283 289 299 294 300 314 304 275 232 253 264 172 140 161 145 138 176 171 164 202 226 249 234 237 160 174 194 203 207 224 218 212 205 193 205 222 183 178 211 207 197 209 216 216 220 214 210 217 226 222 204 203 213 222 224 226 226 225 224 225 219 214 228 252 242 225 215 220 227 225 219 215 212 209 206 206 207 206 206
333 330 331 333 331 332 320 267 264 283 290 283 300 314 306 274 230 224 225 230 213 151 139 160 165 170 176 180 197 209 226 232 193 155 175 187 197 209 236 232 221 214 203 209 227 224 181 190 206 207 212 215 218 222 218 213 216 214 207 207 205 211 219 224 227 232 235 226 224 227 213 211 245 246 223 215 222 231 235 229 220 213 210 208 205 204 203 202
332 328 329 328 320 306 292 272 265 287 273 291 320 308 277 234 217 236 215 212 287 165 154 181 173 165 189 200 192 186 205 216 185 174 179 180 190 197 205 216 215 216 211 207 221 226 203 182 198 209 210 214 217 219 214 214 219 218 215 213 204 199 208 219 218 224 240 229 223 233 220 206 233 249 229 215 220 232 242 240 232 219 210 207 204 204 202 199
330 327 326 322 314 286 258 260 266 262 253 306 315 280 239 212 224 234 206 127 235 180 172 186 178 181 196 209 216 195 204 212 192 188 187 185 189 194 201 202 193 202 213 206 207 215 214 206 201 196 199 208 212 209 204 209 215 217 219 214 206 199 199 210 213 212 230 233 228 233 224 213 229 245 243 232 222 229 237 242 249 239 220 206 200 202 201 198
329 327 324 322 315 276 256 266 263 258 267 282 281 238 218 231 227 213 204 203 167 128 161 176 180 192 203 212 208 201 226 212 188 196 197 193 195 196 204 206 199 204 213 203 200 205 211 211 208 202 192 199 207 208 201 200 204 208 211 210 208 207 206 210 214 214 223 229 228 229 227 225 233 239 239 240 237 237 241 247 253 252 240 216 200 199 198 198
327 327 326 323 310 277 262 265 248 243 245 231 224 207 217 233 228 204 212 215 204 104 145 164 187 201 213 227 217 207 232 203 182 203 200 194 204 201 203 208 206 211 218 206 203 205 209 210 206 205 192 188 202 214 214 200 199 207 211 216 216 215 218 215 213 217 222 225 220 214 214 227 235 230 225 234 240 244 250 255 252 244 234 218 202 198 197 197
329 329 324 314 299 278 258 241 227 206 201 204 206 212 218 226 225 217 220 217 219 215 186 188 215 218 220 224 221 222 235 205 183 206 209 201 210 205 201 207 204 206 218 212 203 207 219 224 200 198 198 191 197 211 217 210 204 205 211 220 222 219 224 230 231 230 228 228 221 207 206 231 239 232 203 222 236 241 249 255 250 234 214 203 198 198 198 198
329 327 316 296 273 264 239 225 206 192 206 217 215 219 223 224 223 223 218 216 226 229 224 223 223 232 233 219 214 205 207 222 198 203 217 213 216 212 205 204 199 202 215 217 204 202 221 231 187 189 200 198 196 200 207 217 215 195 206 219 222 223 228 234 235 234 231 233 228 209 211 228 236 238 231 233 242 245 245 247 245 234 208 200 200 198 200 199
326 323 310 288 270 247 224 207 187 191 213 224 224 228 228 227 232 237 225 212 235 236 234 235 222 227 232 225 225 207 194 211 211 213 221 209 213 215 209 205 197 203 214 218 217 206 222 233 178 182 199 198 197 201 204 217 223 206 207 211 213 229 240 238 229 218 220 232 233 224 223 223 227 235 233 234 241 243 242 244 248 237 208 205 208 202 201 199
315 310 294 272 255 236 210 186 178 193 214 223 233 239 237 234 233 233 228 227 253 239 230 237 224 220 228 229 230 210 193 198 202 211 220 203 201 206 208 208 196 200 210 215 222 202 210 238 189 183 200 195 194 208 207 209 218 226 228 209 206 218 224 225 226 221 221 228 236 236 234 227 227 232 223 219 227 232 232 235 243 232 207 208 211 204 201 198
309 306 285 180 136 82 127 171 182 203 217 221 232 234 236 241 236 234 237 238 247 240 233 240 233 223 228 232 232 204 193 207 206 203 213 203 183 188 206 211 194 197 205 209 224 209 196 238 211 183 197 195 188 207 212 200 208 223 234 223 217 221 218 216 222 228 231 232 235 238 237 227 224 232 226 216 215 223 227 231 244 245 225 217 212 204 198 195
315 303 286 109 112 79 95 184 210 218 219 227 237 234 233 241 237 236 238 237 241 240 237 241 238 232 228 230 237 214 199 217 216 206 210 199 179 183 206 212 198 197 204 206 218 223 198 220 228 185 188 197 192 201 212 207 199 205 216 220 215 214 222 227 224 224 232 238 236 237 240 231 216 223 226 223 223 232 246 252 255 259 252 236 216 202 193 192
310 281 142 97 121 181 235 231 227 221 228 235 240 240 242 247 244 237 233 233 237 240 245 248 245 243 238 231 233 223 212 222 220 221 222 203 206 209 195 208 212 201 200 205 211 217 204 207 222 197 182 203 210 201 209 218 213 201 203 216 216 210 215 225 225 220 225 235 237 238 244 239 218 206 214 224 231 235 241 250 254 258 261 252 215 197 194 194
284 258 303 342 274 253 257 247 234 230 236 239 243 246 249 255 253 247 238 233 233 232 238 247 247 246 246 240 237 232 227 230 226 227 229 215 219 215 155 175 228 210 200 210 210 208 211 211 218 219 206 211 216 208 208 219 224 220 213 213 217 217 217 223 224 218 221 231 236 241 244 240 228 204 196 214 231 234 236 246 256 258 259 252 214 199 196 196
275 279 297 301 257 222 244 253 244 238 235 242 251 251 251 251 249 247 242 233 229 225 225 233 236 237 240 241 239 238 233 235 237 233 234 229 222 225 220 206 232 213 199 208 206 197 206 214 214 227 230 221 222 218 209 212 223 228 223 215 217 219 220 226 229 225 228 227 228 238 240 233 228 207 192 209 225 230 235 245 254 259 261 248 210 195 190 193
294 286 283 270 205 204 238 252 252 252 242 240 245 247 250 251 247 244 240 232 226 223 224 227 228 229 234 235 235 237 232 230 237 234 235 241 229 234 245 240 232 227 208 201 194 181 192 206 206 218 225 217 220 217 204 206 216 225 225 219 219 221 222 226 231 231 233 230 228 234 235 227 220 206 203 222 226 224 228 233 238 251 264 258 205 176 176 182
295 278 258 231 204 208 238 261 274 279 268 259 259 258 254 248 243 240 241 242 236 230 230 228 226 227 229 231 232 234 234 233 235 230 229 236 232 232 238 233 231 232 224 293 352 198 201 208 204 212 217 210 211 211 203 205 210 219 228 225 221 221 222 224 228 230 232 232 231 236 239 232 219 204 203 218 222 218 221 227 230 238 254 256 204 163 170 174
298 287 277 249 213 220 242 253 259 263 270 280 280 270 260 252 243 233 234 242 240 237 240 236 228 225 222 225 229 229 229 230 231 231 230 229 224 220 222 222 224 225 231 333 308 241 225 221 210 218 229 226 220 218 213 212 212 214 221 225 224 223 224 226 228 229 231 230 232 238 245 242 227 208 200 207 216 220 220 226 232 232 241 244 214 177 174 175
277 281 294 307 294 270 250 236 242 256 275 286 291 288 279 273 265 241 227 233 234 231 236 236 230 228 221 219 224 228 227 225 226 229 232 231 227 212 199 206 217 214 224 272 245 219 228 230 215 221 234 239 239 234 222 217 220 221 219 221 224 224 225 227 229 232 234 234 233 231 232 238 236 224 213 208 217 226 223 227 238 244 248 240 200 180 185 185
264 280 312 327 304 281 278 297 317 315 298 289 283 282 283 279 276 264 237 234 234 226 226 229 226 228 230 225 225 228 227 225 225 226 228 229 231 226 210 210 217 213 216 235 226 208 226 231 221 225 231 235 239 240 235 228 225 226 225 222 222 223 224 227 232 235 235 238 241 231 223 228 232 232 232 227 224 227 227 232 242 250 254 241 191 187 201 196
269 274 301 317 287 286 304 312 315 307 292 288 281 269 273 273 270 271 270 257 245 230 224 227 224 225 228 228 228 229 224 224 225 222 221 223 223 228 231 224 219 214 219 229 222 211 227 230 227 234 234 232 233 235 237 236 230 228 230 229 228 227 225 226 231 234 235 240 245 242 236 232 226 227 235 239 239 241 243 242 242 246 252 247 217 212 216 207
284 285 294 306 290 286 291 290 290 287 279 279 275 266 267 268 270 286 297 278 266 249 228 226 237 244 233 228 230 232 230 236 242 230 220 219 215 218 230 235 226 214 213 221 213 199 216 224 226 239 243 236 232 231 234 238 237 233 231 232 233 232 230 228 227 229 233 237 239 240 242 239 228 228 235 238 241 246 246 242 240 242 250 249 233 226 226 216
285 290 287 290 288 280 274 272 274 279 276 267 265 270 274 276 296 325 312 279 270 269 256 260 306 323 285 239 232 234 238 258 276 277 272 250 238 237 239 242 240 220 207 207 197 188 209 222 223 240 245 233 227 228 230 233 237 238 234 232 233 233 233 233 229 227 229 232 234 236 238 239 233 231 233 233 236 239 238 237 235 233 239 242 234 230 231 221
276 278 266 267 279 277 275 276 267 266 271 269 279 300 303 303 321 331 314 281 264 275 310 338 337 328 297 257 238 258 315 331 307 296 296 282 271 273 272 263 258 249 222 208 201 191 206 215 214 232 241 233 226 227 229 230 232 233 229 228 231 233 235 237 236 232 229 230 233 234 234 237 234 229 228 230 232 231 227 227 229 226 228 233 231 234 237 228